Regional Weather Roundup
Issued by NWS

Home | Current Version | Previous Version | Graphics & Text | Print | Product List | Glossary On
Versions: 1 2 3 4 5 6 7 8 9 10 11 12 13 14 15 16 17 18 19 20 21 22 23 24 25 26 27 28 29 30 31 32 33 34 35 36 37 38 39 40 41 42 43 44 45 46 47 48 49 50
000
ASUS45 KTFX 010504
RWRMT
MONTANA REGIONAL WEATHER ROUNDUP
NATIONAL WEATHER SERVICE GREAT FALLS MT
1100 PM MDT MON AUG 31 2015

NOTE: "FAIR" INDICATES FEW OR NO CLOUDS BELOW 12000 FEET WITH NO
SIGNIFICANT WEATHER AND/OR OBSTRUCTIONS TO VISIBILITY.

MTZ001>007-043-010600-
WEST OF THE DIVIDE

CITY           SKY/WX    TMP DP  RH WIND       PRES   REMARKS
KALISPELL      CLOUDY    57  44  62 CALM      29.88F
MISSOULA       PTCLDY    58  42  55 CALM      29.93S
BUTTE          CLEAR     54  39  57 SE6       30.01S
MULLAN PASS    PTCLDY    49  40  71 SW9       30.01S
DEER LODGE       N/A     55  37  50 NW7       30.01R
EUREKA           N/A     57  45  62 SE5       29.86F
HAMILTON         N/A     52  43  71 SE6       29.95R
LIBBY            N/A     55  45  67 SW3       29.87F
$$

MTZ008-052>055-010600-
SOUTHWEST MONTANA

CITY           SKY/WX    TMP DP  RH WIND       PRES   REMARKS
BOZEMAN        CLEAR     54  41  61 SE8       29.93R
DILLON         PTCLDY    61  33  35 SW6       29.94S
W YELLOWSTONE  CLEAR     45  28  53 CALM      30.12S
$$

MTZ009-010-012-014-046-048-049-054-010600-
EAST SLOPES AND CENTRAL MONTANA

CITY           SKY/WX    TMP DP  RH WIND       PRES   REMARKS
CUT BANK       CLOUDY    54  37  52 SW5       29.85F
GREAT FALLS    MOCLDY    57  37  47 S8        29.88S
HELENA         CLEAR     62  39  42 CALM      29.90F
$$

MTZ011-013-016-021-045-047-050-051-010600-
NORTH CENTRAL MONTANA

CITY           SKY/WX    TMP DP  RH WIND       PRES   REMARKS
HAVRE          MOCLDY    57  38  48 S8        29.82F
LEWISTOWN      PTCLDY    56  40  55 SE6       29.93S
N BAR RANCH      N/A     52  39  62 W8        29.98R
CHINOOK          N/A     59  39  47 N5        29.81F
FORT BENTON      N/A     61  36  39 CALM      29.86F
$$

MTZ017>020-022>027-061-062-010600-
NORTHEAST MONTANA

CITY           SKY/WX    TMP DP  RH WIND       PRES   REMARKS
GLASGOW        CLEAR     60  45  57 SE9       29.82F
JORDAN           N/A     59  36  42 SE5       29.87S
SIDNEY         CLEAR     55  39  54 CALM      29.87S
WOLF POINT     CLEAR     52  45  77 CALM      29.85S
PLENTYWOOD       N/A     63  39  42 SE3       29.85S
$$

MTZ028>42-056>058-010600-
SOUTHCENTRAL AND SOUTHEAST MONTANA

CITY           SKY/WX    TMP DP  RH WIND       PRES   REMARKS
BAKER          MOCLDY    66  45  46 S17       29.92F
BILLINGS       PTCLDY    72  32  23 S6        29.90F
LIVINGSTON     CLEAR     63  34  33 W7        29.93S
MILES CITY     CLEAR     64  39  39 NE8       29.88S
FORSYTH          N/A     64  36  34 SE3       29.87F
$$

REGIONAL REPORTS...DAKOTAS

CITY           SKY/WX    TMP DP  RH WIND       PRES   REMARKS
WILLISTON      CLEAR     54  44  69 S5        29.87R
MINOT          CLEAR     59  45  59 SW6       29.84S
DICKINSON      CLEAR     56  41  57 S7        29.89F
BISMARCK       PTCLDY    60  52  74 SE6       29.90F
GRAND FORKS    PTCLDY    58  54  86 S6        29.85R
FARGO          MOCLDY    65  62  90 SW3       29.88R
BUFFALO SD       N/A     61  53  75 SE9       29.89S
RAPID CITY     MOCLDY    62  57  83 E6        29.94F
$$

REGIONAL REPORTS...WYOMING/IDAHO/WASHINGTON

CITY           SKY/WX    TMP DP  RH WIND       PRES   REMARKS
GILLETTE       CLEAR     64  53  67 E8        29.93F
SHERIDAN       PTCLDY    55  45  68 SW5       29.94S
BUFFALO WY     CLEAR     64  41  42 W10       30.01S
CODY           CLEAR     64  30  27 SW10      30.00S
YELLOWSTONE LA   N/A     40  28  62 NW3       30.23S
IDAHO FALLS    CLEAR     64  32  30 S7        30.01S
SALMON         PTCLDY    57  37  47 CALM      29.91R
BOISE          CLEAR     68  43  40 CALM      29.90S
SPOKANE        MOCLDY    62  45  53 S5        29.87F
$$

REGIONAL REPORTS...ALBERTA

CITY           SKY/WX    TMP DP  RH WIND       PRES   REMARKS
$$

REGIONAL REPORTS...SASKATCHEWAN

CITY           SKY/WX    TMP DP  RH WIND       PRES   REMARKS
$$


USA.gov is the U.S. government's official web portal to all federal, state and local government web resources and services.